W1FL Weather Reports


Display with metric or nautical units.
time (UTC)temp
F
wind
direction
speed
MPH
gust
MPH
rain 1hr
in
rain 24hr
in
rain mn
in
humidity
%
barometer
mb
20260504081504 43 302 0.0 1.0 0.00 0.00 0.00 76 1007.1
20260504044541 32 250 0.0 2.0 0.00 0.00 0.00 87 1007.8
20260504043028 31 250 0.0 1.0 0.00 0.00 0.00 86 1008.0
20260504041527 31 250 0.0 2.0 0.00 0.00 0.00 86 1008.0
20260504040024 32 251 0.0 0.0 0.00 0.00 0.00 84 1008.0
20260504034522 33 251 0.0 1.0 0.00 0.00 0.00 83 1007.9
20260504033020 33 267 0.0 0.0 0.00 0.00 0.00 83 1008.0
20260504031518 33 267 0.0 0.0 0.00 0.00 0.00 83 1008.0
20260504030021 33 267 0.0 2.0 0.00 0.00 0.00 82 1008.1
20260504024515 34 267 0.0 1.0 0.00 0.00 0.00 80 1008.1
20260504023015 35 267 0.0 0.0 0.00 0.00 0.00 78 1008.2
20260504021512 36 267 0.0 0.0 0.00 0.00 0.00 77 1008.2
20260504020013 36 267 0.0 0.0 0.00 0.00 0.00 74 1008.2
20260504014506 37 267 0.0 0.0 0.00 0.01 0.00 73 1008.2
20260504013010 38 267 0.0 0.0 0.00 0.01 0.00 71 1008.2
20260504011506 39 267 0.0 0.0 0.00 0.01 0.00 71 1008.1
20260504010004 39 267 0.0 0.0 0.00 0.01 0.00 69 1008.0
20260504004504 41 267 0.0 0.0 0.00 0.01 0.00 66 1007.8
20260504003003 42 267 0.0 0.0 0.00 0.01 0.00 63 1007.6
20260504001503 44 267 0.0 0.0 0.00 0.01 0.00 60 1007.6
20260504000002 46 267 0.0 0.0 0.00 0.01 0.00 57 1007.6
20260503234503 46 270 0.0 2.0 0.00 0.01 0.00 57 1007.5
20260503233001 47 238 1.0 3.0 0.00 0.01 0.00 50 1007.5
20260503231503 48 230 2.0 6.0 0.00 0.01 0.00 48 1007.3
20260503224600 48 256 0.0 6.0 0.00 0.02 0.00 48 1007.5
20260503223059 49 216 1.0 4.0 0.00 0.02 0.00 44 1007.3
20260503221601 49 333 0.0 4.0 0.00 0.02 0.00 44 1007.4
20260503220057 48 224 1.0 5.0 0.00 0.02 0.00 50 1007.5
20260503214602 48 306 1.0 5.0 0.00 0.02 0.00 45 1007.4
20260503213055 48 302 2.0 6.0 0.00 0.02 0.00 45 1007.5
20260503211556 48 240 1.0 5.0 0.00 0.02 0.00 49 1007.5
20260503210054 48 348 0.0 10.0 0.00 0.02 0.00 47 1007.4
20260503204558 49 314 3.0 7.0 0.00 0.02 0.00 48 1007.4
20260503203051 47 155 1.0 6.0 0.00 0.02 0.00 54 1007.5
20260503201550 46 240 3.0 10.0 0.00 0.02 0.00 54 1007.7
20260503200050 47 238 3.0 13.0 0.00 0.02 0.00 50 1007.6
20260503194548 48 255 0.0 6.0 0.00 0.02 0.00 51 1007.6
20260503193100 47 253 2.0 8.0 0.00 0.02 0.00 50 1007.8
20260503191545 47 317 3.0 11.0 0.00 0.02 0.00 48 1008.0
20260503190059 48 204 2.0 7.0 0.00 0.02 0.00 54 1007.9
20260503184542 48 331 4.0 10.0 0.00 0.02 0.00 47 1008.0
20260503183055 47 51 1.0 10.0 0.00 0.02 0.00 51 1008.2
20260503181540 47 271 2.0 10.0 0.00 0.02 0.00 48 1008.3
20260503180051 47 241 4.0 11.0 0.00 0.02 0.00 48 1008.1
20260503174540 47 5 3.0 12.0 0.00 0.02 0.00 49 1008.2
20260503173053 47 254 3.0 10.0 0.00 0.02 0.00 48 1008.1
20260503171543 47 355 1.0 11.0 0.00 0.02 0.00 53 1008.2